Hutchinson, MN

4:29 PM CDT on October 17, 2017 (GMT -0500)
Hutchinson Municipal-Butler

Weather History for KHCD - October, 2010

Change the Weather History Date:

Sunday, October 31, 2010

  Actual Average Record
Temperature  
Mean Temperature 36 °F -  
Max Temperature 46 °F 51 °F 73 °F (1999)
Min Temperature 27 °F 33 °F 15 °F (1996)
Degree Days  
Heating Degree Days 28    
Moisture  
Dew Point 29 °F    
Average Humidity 79    
Maximum Humidity 94    
Minimum Humidity 55    
Precipitation  
Precipitation 0.00 in - - ()
Sea Level Pressure  
Sea Level Pressure 30.21 in    
Wind  
Wind Speed 2 mph (ESE)    
Max Wind Speed 8 mph    
Max Gust Speed -    
Visibility 10 miles    
Events      
Averages and records for this station are not official NWS values.
T = Trace of Precipitation, MM = Missing Value Source: NWS Daily Summary

Daily Weather History Graph

Daily Weather History Graph

Search for Another Location

Airport or City:

Trip Planner

Search our weather history database for the weather conditions in past years. The results will help you decide how hot, cold, wet, or windy it might be!

Date:

Astronomy

Oct. 31, 2010 Rise Set
Actual Time 7:54 AM CDT 6:07 PM CDT
Civil Twilight 7:23 AM CDT 6:37 PM CDT
Nautical Twilight 6:49 AM CDT 7:12 PM CDT
Astronomical Twilight 6:15 AM CDT 7:46 PM CDT
Moon 1:03 AM CDT (10/31) 2:58 PM CDT (10/31)
Length of Visible Light 11h 13m
Length of Day
10h 12m
Last Quarter, 37% of the Moon is Illuminated
Oct 31
Last Quarter
Nov 5
New
Nov 13
First Quarter
Nov 21
Full
Nov 28
Last Quarter

Hourly Weather History & Observations

Time (CDT) Temp. Windchill Dew Point Humidity Pressure Visibility Wind Dir Wind Speed Gust Speed Precip Events Conditions
12:12 AM 29.7 °F - 27.9 °F 93% 30.12 in 10.0 mi Calm Calm - N/A   Clear
12:32 AM 28.0 °F - 26.4 °F 94% 30.12 in 7.0 mi Calm Calm - N/A   Clear
12:52 AM 28.8 °F - 27.3 °F 94% 30.12 in 10.0 mi Calm Calm - N/A   Clear
1:12 AM 29.7 °F 26.1 °F 28.2 °F 94% 30.12 in 10.0 mi NNW 3.5 mph - N/A   Clear
1:32 AM 29.7 °F - 28.2 °F 94% 30.13 in 10.0 mi Calm Calm - N/A   Clear
1:52 AM 29.7 °F 26.1 °F 28.2 °F 94% 30.13 in 10.0 mi NNE 3.5 mph - N/A   Clear
2:12 AM 29.7 °F 24.7 °F 27.5 °F 92% 30.13 in 10.0 mi North 4.6 mph - N/A   Clear
2:32 AM 32.0 °F - 29.1 °F 89% 30.14 in 10.0 mi Calm Calm - N/A   Clear
2:52 AM 29.7 °F - 26.4 °F 88% 30.14 in 10.0 mi Calm Calm - N/A   Clear
3:12 AM 27.1 °F - 25.2 °F 92% 30.15 in 10.0 mi Calm Calm - N/A   Clear
3:32 AM 27.5 °F - 25.7 °F 93% 30.15 in 10.0 mi Calm Calm - N/A   Clear
3:52 AM 27.1 °F - 25.0 °F 92% 30.17 in 10.0 mi Calm Calm - N/A   Clear
4:12 AM 28.6 °F - 26.6 °F 92% 30.17 in 10.0 mi Calm Calm - N/A   Clear
4:32 AM 27.1 °F - 24.8 °F 91% 30.17 in 10.0 mi Calm Calm - N/A   Clear
4:51 AM 27.1 °F - 25.2 °F 92% 30.18 in 10.0 mi Calm Calm - N/A   Clear
5:12 AM 27.1 °F - 25.3 °F 93% 30.18 in 10.0 mi Calm Calm - N/A   Clear
5:32 AM 27.1 °F - 25.3 °F 93% 30.19 in 10.0 mi Calm Calm - N/A   Clear
5:52 AM 27.1 °F - 25.5 °F 94% 30.19 in 10.0 mi Calm Calm - N/A   Clear
6:12 AM 27.1 °F - 25.5 °F 94% 30.19 in 10.0 mi Calm Calm - N/A   Clear
6:32 AM 27.1 °F - 25.5 °F 94% 30.19 in 10.0 mi Calm Calm - N/A   Clear
6:52 AM 27.5 °F 20.2 °F 25.7 °F 93% 30.18 in 10.0 mi NE 6.9 mph - N/A   Clear
7:12 AM 29.7 °F 22.0 °F 27.5 °F 92% 30.18 in 10.0 mi NE 8.1 mph - N/A   Clear
7:32 AM 29.7 °F 22.8 °F 27.5 °F 92% 30.18 in 10.0 mi NE 6.9 mph - N/A   Clear
7:52 AM 29.7 °F 26.1 °F 27.5 °F 92% 30.18 in 10.0 mi ENE 3.5 mph - N/A   Clear
8:32 AM 29.7 °F - 27.3 °F 91% 30.19 in 10.0 mi Calm Calm - N/A   Clear
8:52 AM 29.7 °F - 27.5 °F 92% 30.21 in 10.0 mi Calm Calm - N/A   Clear
9:11 AM 29.7 °F - 27.5 °F 92% 30.23 in 10.0 mi Calm Calm - N/A   Clear
9:32 AM 32.0 °F - 29.8 °F 92% 30.25 in 10.0 mi Calm Calm - N/A   Clear
9:52 AM 33.6 °F 29.4 °F 31.1 °F 90% 30.25 in 10.0 mi East 4.6 mph - N/A   Clear
10:12 AM 36.7 °F 34.1 °F 32.2 °F 84% 30.26 in 10.0 mi SE 3.5 mph - N/A   Clear
10:32 AM 37.2 °F 33.6 °F 32.0 °F 81% 30.26 in 10.0 mi ESE 4.6 mph - N/A   Clear
10:52 AM 38.1 °F 32.3 °F 31.1 °F 76% 30.27 in 10.0 mi SE 8.1 mph - N/A   Clear
11:52 AM 41.9 °F 38.2 °F 31.3 °F 66% 30.26 in 10.0 mi SE 5.8 mph - N/A   Clear
12:12 PM 43.9 °F 40.5 °F 33.1 °F 66% 30.26 in 10.0 mi SE 5.8 mph - N/A   Clear
12:32 PM 44.2 °F 41.0 °F 32.4 °F 63% 30.25 in 10.0 mi ESE 5.8 mph - N/A   Clear
12:52 PM 44.4 °F 42.0 °F 32.0 °F 62% 30.25 in 10.0 mi SSE 4.6 mph - N/A   Clear
1:12 PM 46.8 °F - 33.3 °F 59% 30.24 in 10.0 mi South 4.6 mph - N/A   Clear
1:32 PM 46.8 °F - 33.3 °F 59% 30.24 in 10.0 mi SE 5.8 mph - N/A   Clear
1:52 PM 44.2 °F - 31.6 °F 61% 30.23 in 10.0 mi Calm Calm - N/A   Scattered Clouds
2:11 PM 46.8 °F - 32.7 °F 58% 30.22 in 10.0 mi Calm Calm - N/A   Scattered Clouds
2:32 PM 46.8 °F - 32.2 °F 57% 30.22 in 10.0 mi SSE 4.6 mph - N/A   Scattered Clouds
2:52 PM 46.8 °F - 32.0 °F 57% 30.22 in 10.0 mi SSE 5.8 mph - N/A   Clear
3:12 PM 46.8 °F - 31.6 °F 56% 30.21 in 10.0 mi SW 4.6 mph - N/A   Clear
3:32 PM 46.8 °F - 31.1 °F 55% 30.22 in 10.0 mi SSW 4.6 mph - N/A   Scattered Clouds
3:52 PM 46.8 °F - 31.8 °F 56% 30.22 in 10.0 mi SE 4.6 mph - N/A   Clear
4:12 PM 46.8 °F - 31.3 °F 55% 30.22 in 10.0 mi Calm Calm - N/A   Clear
4:32 PM 46.8 °F - 31.6 °F 56% 30.22 in 10.0 mi SSE 3.5 mph - N/A   Clear
4:52 PM 46.8 °F - 32.0 °F 57% 30.22 in 10.0 mi ESE 4.6 mph - N/A   Clear
5:12 PM 46.8 °F - 32.5 °F 58% 30.22 in 10.0 mi SE 3.5 mph - N/A   Clear
5:32 PM 44.2 °F 42.7 °F 31.1 °F 60% 30.23 in 10.0 mi SE 3.5 mph - N/A   Clear
5:51 PM 42.6 °F - 31.1 °F 64% 30.24 in 10.0 mi Calm Calm - N/A   Clear
6:12 PM 39.6 °F - 30.4 °F 70% 30.24 in 10.0 mi Calm Calm - N/A   Clear
6:32 PM 38.8 °F - 31.1 °F 74% 30.24 in 10.0 mi Calm Calm - N/A   Clear
7:12 PM 36.7 °F 32.9 °F 31.3 °F 81% 30.25 in 10.0 mi ENE 4.6 mph - N/A   Clear
7:32 PM 34.3 °F 30.2 °F 28.4 °F 79% 30.24 in 10.0 mi East 4.6 mph - N/A   Clear
7:52 PM 34.2 °F - 29.3 °F 82% 30.25 in 10.0 mi Calm Calm - N/A   Clear
8:12 PM 34.2 °F 30.0 °F 28.9 °F 81% 30.25 in 10.0 mi East 4.6 mph - N/A   Clear
8:32 PM 32.0 °F 27.5 °F 27.3 °F 83% 30.25 in 10.0 mi East 4.6 mph - N/A   Clear
9:12 PM 32.0 °F 28.7 °F 28.4 °F 87% 30.26 in 10.0 mi East 3.5 mph - N/A   Clear
9:31 PM 32.0 °F - 28.4 °F 87% 30.27 in 10.0 mi Calm Calm - N/A   Clear
9:52 PM 32.0 °F - 28.8 °F 88% 30.28 in 10.0 mi Calm Calm - N/A   Clear
10:12 PM 32.0 °F - 28.8 °F 88% 30.28 in 10.0 mi Calm Calm - N/A   Clear
10:32 PM 32.0 °F - 29.1 °F 89% 30.29 in 10.0 mi Calm Calm - N/A   Clear
10:52 PM 32.0 °F - 28.9 °F 88% 30.30 in 10.0 mi Calm Calm - N/A   Clear
11:12 PM 32.0 °F - 29.3 °F 90% 30.30 in 10.0 mi Calm Calm - N/A   Clear
11:32 PM 32.0 °F - 29.3 °F 90% 30.30 in 10.0 mi Calm Calm - N/A   Clear
11:52 PM 32.0 °F 28.7 °F 28.4 °F 87% 30.30 in 10.0 mi East 3.5 mph - N/A   Clear